• In Uzbekistan
  • List of Countries
  • For 7 days
  • Water Temperature
  • Satellite Maps
  • Weather Map
  • Weather Widgets
  • user-avatar
    Login

    Hourly Weather Seli

    Today, 23 August, Wednesday

    Time Temperature Precipitation Wind Pressure Humidity
    00:00 +27°C° 0 mm 3 mps 747 mmHg 67%
    01:00 +26°C° 0 mm 3 mps 747 mmHg 68%
    02:00 +26°C° 0 mm 4 mps 747 mmHg 70%
    03:00 +26°C° 0 mm 4 mps 747 mmHg 71%
    04:00 +25°C° 0 mm 4 mps 747 mmHg 72%
    05:00 +25°C° 0 mm 4 mps 747 mmHg 73%
    06:00 +26°C° 0 mm 4 mps 747 mmHg 69%
    07:00 +27°C° 0 mm 4 mps 747 mmHg 65%
    08:00 +27°C° 0 mm 4 mps 748 mmHg 61%
    09:00 +29°C° 0 mm 4 mps 748 mmHg 56%
    10:00 +30°C° 0 mm 4 mps 748 mmHg 52%
    11:00 +32°C° 0 mm 4 mps 749 mmHg 47%
    12:00 +32°C° 0 mm 4 mps 749 mmHg 47%
    13:00 +33°C° 0 mm 4 mps 749 mmHg 47%
    14:00 +33°C° 0 mm 4 mps 749 mmHg 47%
    15:00 +33°C° 0 mm 4 mps 749 mmHg 44%
    16:00 +33°C° 0 mm 4 mps 749 mmHg 41%
    17:00 +32°C° 0 mm 4 mps 748 mmHg 39%
    18:00 +30°C° 0 mm 4 mps 748 mmHg 43%
    19:00 +28°C° 0 mm 4 mps 748 mmHg 47%
    20:00 +27°C° 0 mm 3 mps 748 mmHg 51%
    21:00 +26°C° 0 mm 3 mps 749 mmHg 54%
    22:00 +26°C° 0 mm 3 mps 749 mmHg 56%
    23:00 +25°C° 0 mm 3 mps 749 mmHg 58%

    Tomorrow, 24 August, Thursday

    Time Temperature Precipitation Wind Pressure Humidity
    00:00 +25°C° 0 mm 3 mps 749 mmHg 58%
    01:00 +25°C° 0 mm 4 mps 749 mmHg 57%
    02:00 +23°C° 0 mm 4 mps 749 mmHg 56%
    03:00 +23°C° 0 mm 4 mps 749 mmHg 58%
    04:00 +23°C° 0 mm 4 mps 748 mmHg 60%
    05:00 +23°C° 0 mm 4 mps 748 mmHg 61%
    06:00 +25°C° 0 mm 5 mps 749 mmHg 57%
    07:00 +26°C° 0 mm 5 mps 749 mmHg 53%
    08:00 +27°C° 0 mm 5 mps 749 mmHg 49%
    09:00 +29°C° 0 mm 6 mps 749 mmHg 44%
    10:00 +30°C° 0 mm 6 mps 749 mmHg 38%
    11:00 +32°C° 0 mm 6 mps 750 mmHg 33%
    12:00 +33°C° 0 mm 6 mps 749 mmHg 31%
    13:00 +33°C° 0 mm 7 mps 749 mmHg 30%
    14:00 +34°C° 0 mm 7 mps 749 mmHg 29%
    15:00 +33°C° 0 mm 7 mps 749 mmHg 29%
    16:00 +33°C° 0 mm 7 mps 749 mmHg 30%
    17:00 +32°C° 0 mm 7 mps 749 mmHg 31%
    18:00 +29°C° 0 mm 7 mps 749 mmHg 37%
    19:00 +28°C° 0 mm 6 mps 749 mmHg 43%
    20:00 +27°C° 0 mm 6 mps 749 mmHg 49%
    21:00 +26°C° 0 mm 6 mps 749 mmHg 51%
    22:00 +26°C° 0 mm 6 mps 749 mmHg 53%
    23:00 +26°C° 0 mm 6 mps 750 mmHg 55%

    Day after tomorrow, 25 August, Friday

    Time Temperature Precipitation Wind Pressure Humidity
    00:00 +24°C° 0 mm 6 mps 749 mmHg 55%
    01:00 +24°C° 0 mm 6 mps 749 mmHg 56%
    02:00 +24°C° 0 mm 6 mps 749 mmHg 57%
    03:00 +24°C° 0 mm 7 mps 749 mmHg 58%
    04:00 +24°C° 0 mm 7 mps 749 mmHg 60%
    05:00 +24°C° 0 mm 7 mps 748 mmHg 61%
    06:00 +26°C° 0 mm 8 mps 749 mmHg 57%
    07:00 +27°C° 0 mm 8 mps 749 mmHg 52%
    08:00 +28°C° 0 mm 8 mps 749 mmHg 48%
    09:00 +29°C° 0 mm 8 mps 749 mmHg 43%
    10:00 +32°C° 0 mm 8 mps 749 mmHg 37%
    11:00 +33°C° 0 mm 8 mps 749 mmHg 32%
    12:00 +33°C° 0 mm 8 mps 749 mmHg 31%
    13:00 +34°C° 0 mm 8 mps 749 mmHg 31%
    14:00 +34°C° 0 mm 8 mps 749 mmHg 30%
    15:00 +33°C° 0 mm 8 mps 748 mmHg 33%
    16:00 +32°C° 0 mm 8 mps 748 mmHg 36%
    17:00 +32°C° 0 mm 8 mps 748 mmHg 39%
    18:00 +29°C° 0 mm 8 mps 748 mmHg 46%
    19:00 +28°C° 0 mm 8 mps 748 mmHg 53%
    20:00 +26°C° 0 mm 8 mps 748 mmHg 60%
    21:00 +26°C° 0 mm 7 mps 748 mmHg 62%
    22:00 +26°C° 0 mm 7 mps 749 mmHg 64%
    23:00 +26°C° 0 mm 7 mps 749 mmHg 65%

    26 August, Saturday

    Time Temperature Precipitation Wind Pressure Humidity
    00:00 +26°C° 0 mm 7 mps 748 mmHg 67%
    01:00 +26°C° 0 mm 7 mps 748 mmHg 68%
    02:00 +24°C° 0 mm 8 mps 748 mmHg 69%
    03:00 +24°C° 0 mm 8 mps 748 mmHg 71%
    04:00 +24°C° 0 mm 8 mps 748 mmHg 72%
    05:00 +24°C° 0 mm 8 mps 747 mmHg 73%
    06:00 +26°C° 0 mm 8 mps 748 mmHg 66%
    07:00 +27°C° 0 mm 8 mps 748 mmHg 60%
    08:00 +28°C° 0 mm 8 mps 748 mmHg 54%
    09:00 +31°C° 0 mm 8 mps 748 mmHg 48%
    10:00 +32°C° 0 mm 8 mps 748 mmHg 43%
    11:00 +34°C° 0 mm 8 mps 748 mmHg 38%
    12:00 +34°C° 0 mm 8 mps 748 mmHg 38%
    13:00 +34°C° 0 mm 7 mps 748 mmHg 37%
    14:00 +34°C° 0 mm 7 mps 748 mmHg 37%
    15:00 +34°C° 0 mm 7 mps 748 mmHg 39%
    16:00 +33°C° 0 mm 7 mps 747 mmHg 41%
    17:00 +33°C° 0 mm 7 mps 747 mmHg 43%
    18:00 +30°C° 0 mm 7 mps 747 mmHg 50%
    19:00 +28°C° 0 mm 7 mps 748 mmHg 57%
    20:00 +27°C° 0 mm 6 mps 748 mmHg 64%
    21:00 +26°C° 0 mm 6 mps 748 mmHg 66%
    22:00 +26°C° 0 mm 6 mps 748 mmHg 68%
    23:00 +26°C° 0 mm 6 mps 748 mmHg 69%

    27 August, Sunday

    Time Temperature Precipitation Wind Pressure Humidity
    00:00 +24°C° 0 mm 6 mps 747 mmHg 70%
    01:00 +24°C° 0 mm 6 mps 747 mmHg 70%
    02:00 +24°C° 0 mm 6 mps 747 mmHg 70%
    03:00 +24°C° 0 mm 6 mps 747 mmHg 71%
    04:00 +24°C° 0 mm 6 mps 746 mmHg 73%
    05:00 +23°C° 0 mm 7 mps 746 mmHg 74%
    06:00 +26°C° 0 mm 7 mps 746 mmHg 68%
    07:00 +27°C° 0 mm 7 mps 747 mmHg 62%
    08:00 +28°C° 0 mm 7 mps 747 mmHg 56%
    09:00 +29°C° 0 mm 7 mps 747 mmHg 51%
    10:00 +30°C° 0 mm 7 mps 747 mmHg 46%
    11:00 +32°C° 0 mm 7 mps 747 mmHg 40%
    12:00 +33°C° 0 mm 7 mps 747 mmHg 40%
    13:00 +33°C° 0 mm 7 mps 746 mmHg 40%
    14:00 +33°C° 0 mm 7 mps 746 mmHg 40%
    15:00 +33°C° 0 mm 7 mps 746 mmHg 42%
    16:00 +32°C° 0 mm 7 mps 746 mmHg 44%
    17:00 +32°C° 0 mm 7 mps 746 mmHg 47%
    18:00 +29°C° 0 mm 6 mps 746 mmHg 53%
    19:00 +28°C° 0 mm 6 mps 746 mmHg 60%
    20:00 +26°C° 0 mm 5 mps 746 mmHg 67%
    21:00 +26°C° 0 mm 5 mps 746 mmHg 67%
    22:00 +25°C° 0 mm 4 mps 746 mmHg 68%
    23:00 +25°C° 0 mm 4 mps 746 mmHg 68%

    28 August, Monday

    Time Temperature Precipitation Wind Pressure Humidity
    00:00 +25°C° 0 mm 4 mps 746 mmHg 67%
    01:00 +25°C° 0 mm 4 mps 746 mmHg 66%
    02:00 +25°C° 0 mm 5 mps 745 mmHg 65%
    03:00 +25°C° 0 mm 5 mps 745 mmHg 65%
    04:00 +25°C° 0 mm 5 mps 745 mmHg 65%
    05:00 +23°C° 0 mm 5 mps 745 mmHg 65%
    06:00 +25°C° 0 mm 5 mps 745 mmHg 62%
    07:00 +26°C° 0 mm 5 mps 745 mmHg 60%
    08:00 +27°C° 0 mm 5 mps 745 mmHg 57%
    09:00 +29°C° 0 mm 5 mps 745 mmHg 52%
    10:00 +30°C° 0 mm 5 mps 745 mmHg 46%
    11:00 +32°C° 0 mm 5 mps 746 mmHg 41%
    12:00 +33°C° 0 mm 5 mps 745 mmHg 40%
    13:00 +33°C° 0 mm 5 mps 745 mmHg 39%
    14:00 +34°C° 0 mm 5 mps 745 mmHg 38%
    15:00 +33°C° 0 mm 5 mps 745 mmHg 39%
    16:00 +32°C° 0 mm 5 mps 745 mmHg 40%
    17:00 +32°C° 0 mm 5 mps 745 mmHg 42%
    18:00 +29°C° 0 mm 4 mps 745 mmHg 47%
    19:00 +28°C° 0 mm 4 mps 745 mmHg 52%
    20:00 +26°C° 0 mm 3 mps 745 mmHg 57%
    21:00 +26°C° 0 mm 3 mps 745 mmHg 57%
    22:00 +26°C° 0 mm 4 mps 745 mmHg 57%
    23:00 +25°C° 0 mm 4 mps 745 mmHg 58%
    Show more